When you browse on this site, cookies collect data to enhance your experience and personalize the content and advertising you see.
Visit our Privacy Policy to learn more. By continuing to use the site, you agree to this use of cookies and data.
  • en France
  • Liste des pays
  • À 7 jours
  • Température de l'eau
  • Carte satellitaire
  • Carte météo
  • Widgets météo
  • user-avatar
    Se connecter

    Météo par heure à Syngryanovo

    Ce jour, 22 Novembre, Jeudi

    Heure Température Précipitation Vent Pression Humidité
    00:00 -8°C° 0 mm 5 m/s 743 mmHg 87%
    01:00 -10°C° 0 mm 5 m/s 743 mmHg 88%
    02:00 -10°C° 0 mm 5 m/s 744 mmHg 88%
    03:00 -11°C° 0 mm 5 m/s 744 mmHg 89%
    04:00 -11°C° 0 mm 5 m/s 744 mmHg 91%
    05:00 -11°C° 0 mm 5 m/s 744 mmHg 91%
    06:00 -11°C° 0 mm 5 m/s 744 mmHg 91%
    07:00 -11°C° 0 mm 5 m/s 744 mmHg 91%
    08:00 -11°C° 0 mm 5 m/s 744 mmHg 91%
    09:00 -11°C° 0 mm 5 m/s 743 mmHg 91%
    10:00 -11°C° 0 mm 5 m/s 743 mmHg 91%
    11:00 -11°C° 0 mm 5 m/s 743 mmHg 90%
    12:00 -10°C° 0 mm 5 m/s 743 mmHg 89%
    13:00 -8°C° 0 mm 5 m/s 742 mmHg 88%
    14:00 -8°C° 0.3 mm 5 m/s 742 mmHg 88%
    15:00 -9°C° 0.3 mm 6 m/s 741 mmHg 88%
    16:00 -9°C° 0.3 mm 7 m/s 740 mmHg 89%
    17:00 -9°C° 0.4 mm 7 m/s 740 mmHg 88%
    18:00 -10°C° 0.4 mm 8 m/s 739 mmHg 87%
    19:00 -8°C° 0.4 mm 8 m/s 738 mmHg 87%
    20:00 -10°C° 0.3 mm 8 m/s 737 mmHg 87%
    21:00 -10°C° 0.3 mm 8 m/s 737 mmHg 88%
    22:00 -10°C° 0.3 mm 8 m/s 736 mmHg 88%
    23:00 -8°C° 0.4 mm 7 m/s 736 mmHg 90%

    Demain, 23 Novembre, Vendredi

    Heure Température Précipitation Vent Pression Humidité
    00:00 -8°C° 0.4 mm 6 m/s 736 mmHg 91%
    01:00 -8°C° 0.4 mm 6 m/s 736 mmHg 92%
    02:00 -8°C° 0.3 mm 5 m/s 736 mmHg 92%
    03:00 -10°C° 0.3 mm 5 m/s 736 mmHg 91%
    04:00 -9°C° 0.3 mm 4 m/s 736 mmHg 91%
    05:00 -11°C° 0 mm 4 m/s 736 mmHg 91%
    06:00 -12°C° 0 mm 4 m/s 737 mmHg 92%
    07:00 -14°C° 0 mm 4 m/s 737 mmHg 92%
    08:00 -14°C° 0 mm 4 m/s 738 mmHg 91%
    09:00 -14°C° 0 mm 5 m/s 739 mmHg 91%
    10:00 -14°C° 0 mm 5 m/s 740 mmHg 90%
    11:00 -14°C° 0 mm 5 m/s 741 mmHg 87%
    12:00 -14°C° 0 mm 6 m/s 741 mmHg 83%
    13:00 -14°C° 0 mm 6 m/s 742 mmHg 79%
    14:00 -14°C° 0 mm 6 m/s 743 mmHg 79%
    15:00 -14°C° 0 mm 5 m/s 744 mmHg 79%
    16:00 -15°C° 0 mm 5 m/s 745 mmHg 79%
    17:00 -15°C° 0 mm 5 m/s 745 mmHg 81%
    18:00 -15°C° 0 mm 5 m/s 746 mmHg 83%
    19:00 -17°C° 0 mm 5 m/s 747 mmHg 84%
    20:00 -17°C° 0 mm 5 m/s 747 mmHg 87%
    21:00 -17°C° 0 mm 4 m/s 748 mmHg 89%
    22:00 -17°C° 0 mm 4 m/s 748 mmHg 92%
    23:00 -17°C° 0 mm 4 m/s 749 mmHg 93%

    Après-demain, 24 Novembre, Samedi

    Heure Température Précipitation Vent Pression Humidité
    00:00 -17°C° 0 mm 4 m/s 749 mmHg 94%
    01:00 -17°C° 0 mm 4 m/s 749 mmHg 95%
    02:00 -17°C° 0 mm 4 m/s 750 mmHg 95%
    03:00 -17°C° 0 mm 4 m/s 750 mmHg 95%
    04:00 -16°C° 0 mm 4 m/s 750 mmHg 95%
    05:00 -17°C° 0 mm 4 m/s 750 mmHg 96%
    06:00 -17°C° 0 mm 4 m/s 751 mmHg 96%
    07:00 -16°C° 0 mm 3 m/s 751 mmHg 96%
    08:00 -16°C° 0 mm 4 m/s 751 mmHg 95%
    09:00 -15°C° 0 mm 4 m/s 751 mmHg 94%
    10:00 -13°C° 0 mm 5 m/s 751 mmHg 94%
    11:00 -12°C° 0 mm 5 m/s 750 mmHg 92%
    12:00 -11°C° 0 mm 6 m/s 750 mmHg 90%
    13:00 -10°C° 0 mm 6 m/s 750 mmHg 88%
    14:00 -11°C° 0 mm 7 m/s 749 mmHg 87%
    15:00 -11°C° 0 mm 7 m/s 749 mmHg 87%
    16:00 -11°C° 0 mm 8 m/s 748 mmHg 87%
    17:00 -10°C° 0.1 mm 8 m/s 748 mmHg 86%
    18:00 -10°C° 0.1 mm 8 m/s 748 mmHg 86%
    19:00 -9°C° 0.1 mm 9 m/s 748 mmHg 85%
    20:00 -8°C° 0.1 mm 8 m/s 748 mmHg 85%
    21:00 -8°C° 0.1 mm 8 m/s 748 mmHg 86%
    22:00 -8°C° 0.1 mm 8 m/s 748 mmHg 86%
    23:00 -7°C° 0.1 mm 7 m/s 748 mmHg 87%

    25 Novembre, Dimanche

    Heure Température Précipitation Vent Pression Humidité
    00:00 -7°C° 0.1 mm 7 m/s 748 mmHg 87%
    01:00 -7°C° 0.1 mm 7 m/s 749 mmHg 88%
    02:00 -7°C° 0.1 mm 7 m/s 749 mmHg 88%
    03:00 -6°C° 0.1 mm 6 m/s 748 mmHg 89%
    04:00 -6°C° 0.1 mm 6 m/s 748 mmHg 89%
    05:00 -6°C° 0.1 mm 6 m/s 748 mmHg 89%
    06:00 -6°C° 0.1 mm 6 m/s 748 mmHg 89%
    07:00 -6°C° 0.1 mm 6 m/s 748 mmHg 89%
    08:00 -7°C° 0.2 mm 7 m/s 747 mmHg 89%
    09:00 -7°C° 0.2 mm 7 m/s 747 mmHg 89%
    10:00 -7°C° 0.2 mm 7 m/s 747 mmHg 89%
    11:00 -7°C° 0.3 mm 7 m/s 747 mmHg 89%
    12:00 -6°C° 0.3 mm 7 m/s 747 mmHg 89%
    13:00 -6°C° 0.3 mm 7 m/s 747 mmHg 88%
    14:00 -6°C° 0.1 mm 7 m/s 747 mmHg 89%
    15:00 -5°C° 0.1 mm 6 m/s 748 mmHg 89%
    16:00 -5°C° 0.1 mm 6 m/s 748 mmHg 89%
    17:00 -6°C° 0 mm 5 m/s 748 mmHg 89%
    18:00 -6°C° 0 mm 5 m/s 749 mmHg 90%
    19:00 -6°C° 0 mm 5 m/s 749 mmHg 91%
    20:00 -5°C° 0 mm 4 m/s 749 mmHg 91%
    21:00 -7°C° 0 mm 4 m/s 750 mmHg 92%
    22:00 -7°C° 0 mm 4 m/s 750 mmHg 93%
    23:00 -6°C° 0 mm 3 m/s 750 mmHg 93%

    26 Novembre, Lundi

    Heure Température Précipitation Vent Pression Humidité
    00:00 -7°C° 0 mm 3 m/s 750 mmHg 94%
    01:00 -7°C° 0 mm 2 m/s 750 mmHg 94%
    02:00 -7°C° 0 mm 2 m/s 750 mmHg 94%
    03:00 -8°C° 0 mm 2 m/s 750 mmHg 93%
    04:00 -8°C° 0 mm 2 m/s 751 mmHg 93%
    05:00 -8°C° 0 mm 2 m/s 751 mmHg 93%
    06:00 -7°C° 0 mm 1 m/s 750 mmHg 93%
    07:00 -8°C° 0 mm 1 m/s 750 mmHg 93%
    08:00 -7°C° 0 mm 1 m/s 750 mmHg 93%
    09:00 -6°C° 0 mm 1 m/s 750 mmHg 93%
    10:00 -6°C° 0 mm 1 m/s 751 mmHg 93%
    11:00 -4°C° 0 mm 1 m/s 750 mmHg 92%
    12:00 -4°C° 0 mm 1 m/s 750 mmHg 92%
    13:00 -4°C° 0 mm 1 m/s 750 mmHg 92%
    14:00 -4°C° 0 mm 1 m/s 750 mmHg 91%
    15:00 -6°C° 0 mm 1 m/s 750 mmHg 91%
    16:00 -6°C° 0 mm 1 m/s 749 mmHg 91%
    17:00 -7°C° 0 mm 1 m/s 749 mmHg 91%
    18:00 -8°C° 0 mm 1 m/s 749 mmHg 91%
    19:00 -8°C° 0 mm 1 m/s 749 mmHg 92%
    20:00 -8°C° 0 mm 1 m/s 749 mmHg 92%
    21:00 -9°C° 0 mm 1 m/s 748 mmHg 92%
    22:00 -9°C° 0 mm 1 m/s 748 mmHg 93%
    23:00 -10°C° 0 mm 1 m/s 748 mmHg 93%

    27 Novembre, Mardi

    Heure Température Précipitation Vent Pression Humidité
    00:00 -10°C° 0 mm 1 m/s 748 mmHg 93%
    01:00 -10°C° 0 mm 0 m/s 748 mmHg 93%
    02:00 -10°C° 0 mm 1 m/s 748 mmHg 94%
    03:00 -10°C° 0 mm 1 m/s 748 mmHg 94%
    04:00 -10°C° 0 mm 1 m/s 747 mmHg 94%
    05:00 -10°C° 0.1 mm 1 m/s 747 mmHg 95%
    06:00 -10°C° 0.1 mm 1 m/s 747 mmHg 95%
    07:00 -9°C° 0.1 mm 0 m/s 747 mmHg 95%
    08:00 -9°C° 0.1 mm 0 m/s 747 mmHg 95%
    09:00 -9°C° 0.1 mm 0 m/s 748 mmHg 95%
    10:00 -8°C° 0.1 mm 0 m/s 748 mmHg 95%
    11:00 -8°C° 0.1 mm 0 m/s 748 mmHg 95%
    12:00 -7°C° 0.1 mm 1 m/s 749 mmHg 95%
    13:00 -7°C° 0.1 mm 1 m/s 749 mmHg 94%
    14:00 -8°C° 0 mm 1 m/s 749 mmHg 95%
    15:00 -9°C° 0 mm 1 m/s 750 mmHg 95%
    16:00 -9°C° 0 mm 1 m/s 751 mmHg 96%
    17:00 -10°C° 0 mm 1 m/s 751 mmHg 96%
    18:00 -10°C° 0 mm 1 m/s 752 mmHg 96%
    19:00 -10°C° 0 mm 1 m/s 752 mmHg 96%
    20:00 -10°C° 0 mm 1 m/s 753 mmHg 96%
    21:00 -10°C° 0 mm 1 m/s 753 mmHg 96%
    22:00 -10°C° 0 mm 1 m/s 754 mmHg 96%
    23:00 -10°C° 0 mm 1 m/s 754 mmHg 96%
    Voir plus